| time (UTC) | temp C | wind direction | speed KPH | gust KPH | rain 1hr cm | rain 24hr cm | rain mn cm | humidity % | barometer mb |
| 20260504223401 | 27 | 320 | 16.1 | 0.0 | 0.00 | 0.00 | 0.00 | 61 | 1010.0 |
| 20260504220400 | 26 | 320 | 16.1 | 0.0 | 0.00 | 0.00 | 0.00 | 61 | 1009.0 |
| 20260504213359 | 27 | 330 | 14.5 | 0.0 | 0.00 | 0.00 | 0.00 | 57 | 1009.0 |
| 20260504210358 | 28 | 320 | 14.5 | 0.0 | 0.00 | 0.00 | 0.00 | 65 | 1008.0 |
| 20260504203357 | 27 | 320 | 14.5 | 0.0 | 0.00 | 0.00 | 0.00 | 65 | 1008.0 |
| 20260504200356 | 27 | 60 | 4.8 | 0.0 | 0.00 | 0.00 | 0.00 | 65 | 1008.0 |
| 20260504193355 | 26 | 60 | 4.8 | 0.0 | 0.00 | 0.00 | 0.00 | 65 | 1008.0 |
| 20260504190354 | 30 | 10 | 8.0 | 0.0 | 0.00 | 0.00 | 0.00 | 10 | 1009.0 |
| 20260504183353 | 30 | 10 | 8.0 | 0.0 | 0.00 | 0.00 | 0.00 | 10 | 1009.0 |
| 20260504180352 | 29 | 10 | 8.0 | 0.0 | 0.00 | 0.00 | 0.00 | 10 | 1010.0 |
| 20260504173351 | 28 | 10 | 8.0 | 0.0 | 0.00 | 0.00 | 0.00 | 10 | 1010.0 |
| 20260504170350 | 28 | 10 | 8.0 | 0.0 | 0.00 | 0.00 | 0.00 | 10 | 1012.0 |
| 20260504160348 | 27 | 10 | 8.0 | 0.0 | 0.00 | 0.00 | 0.00 | 10 | 1013.0 |
| 20260504150345 | 26 | 320 | 4.8 | 0.0 | 0.00 | 0.00 | 0.00 | 10 | 1014.0 |
| 20260504140343 | 25 | 320 | 4.8 | 0.0 | 0.00 | 0.00 | 0.00 | 10 | 1014.0 |
| 20260504130341 | 23 | 30 | 3.2 | 0.0 | 0.00 | 0.00 | 0.00 | 10 | 1014.0 |
| 20260504110337 | 21 | 0 | 1.6 | 0.0 | 0.00 | 0.00 | 0.00 | 10 | 1013.0 |
| 20260504100335 | 20 | 0 | 1.6 | 0.0 | 0.00 | 0.00 | 0.00 | 10 | 1013.0 |
| 20260504080331 | 21 | 100 | 3.2 | 0.0 | 0.00 | 0.00 | 0.00 | 94 | 1012.0 |
| 20260504070329 | 22 | 180 | 4.8 | 0.0 | 0.00 | 0.00 | 0.00 | 10 | 1013.0 |
| 20260504050325 | 20 | 80 | 4.8 | 0.0 | 0.00 | 0.00 | 0.00 | 10 | 1014.0 |
| 20260504043324 | 23 | 150 | 8.0 | 0.0 | 0.00 | 0.00 | 0.00 | 88 | 1014.0 |
| 20260504040323 | 23 | 150 | 8.0 | 0.0 | 0.00 | 0.00 | 0.00 | 88 | 1015.0 |
| 20260504033322 | 22 | 150 | 8.0 | 0.0 | 0.00 | 0.00 | 0.00 | 88 | 1015.0 |
| 20260504030321 | 22 | 150 | 8.0 | 0.0 | 0.00 | 0.00 | 0.00 | 88 | 1014.0 |
| 20260504023320 | 21 | 150 | 8.0 | 0.0 | 0.00 | 0.00 | 0.00 | 88 | 1014.0 |
| 20260504020319 | 23 | 170 | 6.4 | 0.0 | 0.00 | 0.00 | 0.00 | 83 | 1014.0 |
| 20260504013317 | 23 | 170 | 6.4 | 0.0 | 0.00 | 0.00 | 0.00 | 83 | 1014.0 |
| 20260504010316 | 22 | 170 | 6.4 | 0.0 | 0.00 | 0.00 | 0.00 | 83 | 1012.0 |
| 20260504003315 | 25 | 300 | 6.4 | 0.0 | 0.00 | 0.00 | 0.00 | 65 | 1011.0 |
| 20260504000314 | 26 | 310 | 14.5 | 0.0 | 0.00 | 0.00 | 0.00 | 61 | 1011.0 |
| 20260503233313 | 26 | 310 | 14.5 | 0.0 | 0.00 | 0.00 | 0.00 | 61 | 1011.0 |
| 20260503230312 | 28 | 330 | 20.9 | 0.0 | 0.00 | 0.00 | 0.00 | 58 | 1010.0 |